TimePST,TemperatureF,Dew PointF,Humidity,Sea Level PressureIn,VisibilityMPH,Wind Direction,Wind SpeedMPH,Gust SpeedMPH,PrecipitationIn,Events,Conditions,WindDirDegrees,DateUTC
12:56 AM,24.1,18.0,77,30.12,10.0,WNW,5.8,-,N/A,,Clear,300,2013-02-04 08:56:00
2:56 AM,21.9,17.1,82,30.11,10.0,South,4.6,-,N/A,,Clear,170,2013-02-04 10:56:00
3:56 AM,24.1,19.9,84,30.11,10.0,Calm,Calm,-,N/A,,Clear,0,2013-02-04 11:56:00
4:56 AM,21.9,18.0,85,30.09,10.0,SW,5.8,-,N/A,,Clear,220,2013-02-04 12:56:00
5:56 AM,21.0,18.0,88,30.09,10.0,SSE,6.9,-,N/A,,Clear,160,2013-02-04 13:56:00
6:13 AM,21.2,17.6,86,30.20,10.0,South,6.9,-,N/A,,Partly Cloudy,190,2013-02-04 14:13:00
6:56 AM,21.0,17.1,85,30.09,10.0,South,3.5,-,N/A,,Scattered Clouds,180,2013-02-04 14:56:00
7:56 AM,27.0,21.0,78,30.10,10.0,Calm,Calm,-,N/A,,Scattered Clouds,0,2013-02-04 15:56:00
8:56 AM,35.1,25.0,67,30.10,10.0,Calm,Calm,-,N/A,,Scattered Clouds,0,2013-02-04 16:56:00
9:56 AM,43.0,26.1,51,30.11,10.0,Calm,Calm,-,N/A,,Scattered Clouds,0,2013-02-04 17:56:00
10:56 AM,46.9,26.1,44,30.10,10.0,Calm,Calm,-,N/A,,Scattered Clouds,0,2013-02-04 18:56:00
11:56 AM,50.0,26.1,39,30.07,10.0,Calm,Calm,-,N/A,,Mostly Cloudy,0,2013-02-04 19:56:00
12:56 PM,55.9,26.1,32,30.04,10.0,East,4.6,-,N/A,,Mostly Cloudy,100,2013-02-04 20:56:00
1:56 PM,55.9,24.1,29,30.01,10.0,SE,3.5,-,N/A,,Mostly Cloudy,130,2013-02-04 21:56:00
2:56 PM,59.0,25.0,27,29.99,10.0,Calm,Calm,-,N/A,,Mostly Cloudy,0,2013-02-04 22:56:00
3:56 PM,59.0,21.9,24,29.98,10.0,Calm,Calm,-,N/A,,Overcast,0,2013-02-04 23:56:00
4:56 PM,57.0,23.0,27,29.97,10.0,East,3.5,-,N/A,,Overcast,80,2013-02-05 00:56:00
5:56 PM,45.0,27.0,49,29.97,10.0,NNE,6.9,-,N/A,,Mostly Cloudy,30,2013-02-05 01:56:00
6:56 PM,41.0,26.1,55,29.98,10.0,ENE,8.1,-,N/A,,Scattered Clouds,60,2013-02-05 02:56:00
7:56 PM,36.0,23.0,59,29.99,10.0,East,3.5,-,N/A,,Partly Cloudy,90,2013-02-05 03:56:00
8:56 PM,33.1,21.9,64,29.99,10.0,Calm,Calm,-,N/A,,Clear,0,2013-02-05 04:56:00
9:56 PM,34.0,23.0,64,29.98,10.0,SSE,9.2,-,N/A,,Clear,160,2013-02-05 05:56:00
10:56 PM,34.0,23.0,64,29.97,10.0,South,4.6,-,N/A,,Clear,180,2013-02-05 06:56:00
11:56 PM,32.0,23.0,69,29.97,10.0,SSW,13.8,19.6,N/A,,Clear,200,2013-02-05 07:56:00